Location: Brabourne
(51.1333°N, 1.0000°E)
Time: 12:02:50
(UTC+00:00)

ADEOS Rocket - Pass Details

Date: 24 October 2021
Orbit: 858 x 1307 km, 98.8° (Epoch: 26 November)

Event Time Altitude Azimuth Distance (km) Brightness Sun altitude
Exits shadow 01:47:12 15° 338° (NNW) 2,776 5.5 -43.0°
Drops below altitude 10° 01:48:14 10° 340° (NNW) 3,130 5.8 -42.8°
Sets 01:50:49 0° 344° (NNW) 4,040 6.5 -42.6°
